When you browse on this site, cookies collect data to enhance your experience and personalize the content and advertising you see.
Visit our Privacy Policy to learn more. By continuing to use the site, you agree to this use of cookies and data.

Hourly Weather Townsville

Today, 6 August, Thursday

Time Temperature Precipitation Wind Pressure Humidity
00:00 +19°C° 0 mm 2 mps 754 mmHg 93%
01:00 +19°C° 0 mm 3 mps 754 mmHg 92%
02:00 +19°C° 0 mm 3 mps 753 mmHg 92%
03:00 +19°C° 0 mm 3 mps 753 mmHg 91%
04:00 +19°C° 0 mm 2 mps 753 mmHg 91%
05:00 +19°C° 0 mm 2 mps 753 mmHg 91%
06:00 +19°C° 0 mm 2 mps 754 mmHg 92%
07:00 +19°C° 0 mm 3 mps 755 mmHg 92%
08:00 +20°C° 0 mm 3 mps 754 mmHg 83%
09:00 +22°C° 0 mm 4 mps 754 mmHg 74%
10:00 +25°C° 0 mm 4 mps 754 mmHg 64%
11:00 +26°C° 0 mm 4 mps 754 mmHg 62%
12:00 +26°C° 0 mm 4 mps 753 mmHg 59%
13:00 +27°C° 0 mm 4 mps 753 mmHg 57%
14:00 +27°C° 0 mm 4 mps 753 mmHg 59%
15:00 +26°C° 0 mm 4 mps 752 mmHg 61%
16:00 +26°C° 0 mm 3 mps 752 mmHg 62%
17:00 +25°C° 0 mm 3 mps 752 mmHg 70%
18:00 +22°C° 0 mm 3 mps 752 mmHg 78%
19:00 +21°C° 0 mm 3 mps 753 mmHg 86%
20:00 +21°C° 0 mm 3 mps 753 mmHg 89%
21:00 +21°C° 0 mm 2 mps 753 mmHg 92%
22:00 +21°C° 0 mm 2 mps 753 mmHg 94%
23:00 +21°C° 0.1 mm 2 mps 753 mmHg 94%

Tomorrow, 7 August, Friday

Time Temperature Precipitation Wind Pressure Humidity
00:00 +21°C° 0.1 mm 3 mps 753 mmHg 95%
01:00 +22°C° 0.1 mm 3 mps 753 mmHg 95%
02:00 +23°C° 0.1 mm 2 mps 752 mmHg 95%
03:00 +23°C° 0.1 mm 2 mps 752 mmHg 95%
04:00 +23°C° 0.1 mm 2 mps 751 mmHg 96%
05:00 +23°C° 0.1 mm 2 mps 752 mmHg 96%
06:00 +23°C° 0.1 mm 2 mps 752 mmHg 96%
07:00 +23°C° 0.1 mm 2 mps 752 mmHg 96%
08:00 +24°C° 0.4 mm 2 mps 753 mmHg 91%
09:00 +25°C° 0.4 mm 2 mps 753 mmHg 86%
10:00 +26°C° 0.4 mm 2 mps 753 mmHg 82%
11:00 +27°C° 0.7 mm 2 mps 753 mmHg 75%
12:00 +29°C° 0.7 mm 2 mps 752 mmHg 69%
13:00 +30°C° 0.7 mm 2 mps 751 mmHg 62%
14:00 +29°C° 0.1 mm 2 mps 751 mmHg 63%
15:00 +29°C° 0.1 mm 2 mps 751 mmHg 64%
16:00 +29°C° 0.1 mm 2 mps 750 mmHg 65%
17:00 +27°C° 0.1 mm 2 mps 751 mmHg 73%
18:00 +26°C° 0.1 mm 1 mps 751 mmHg 80%
19:00 +24°C° 0.1 mm 1 mps 751 mmHg 88%
20:00 +24°C° 0 mm 1 mps 752 mmHg 87%
21:00 +24°C° 0 mm 1 mps 752 mmHg 87%
22:00 +25°C° 0 mm 1 mps 752 mmHg 87%
23:00 +24°C° 0.1 mm 1 mps 752 mmHg 88%

Day after tomorrow, 8 August, Saturday

Time Temperature Precipitation Wind Pressure Humidity
00:00 +24°C° 0.1 mm 1 mps 752 mmHg 89%
01:00 +24°C° 0.1 mm 1 mps 752 mmHg 90%
02:00 +24°C° 0.2 mm 1 mps 752 mmHg 90%
03:00 +24°C° 0.2 mm 1 mps 752 mmHg 91%
04:00 +22°C° 0.2 mm 0 mps 751 mmHg 91%
05:00 +24°C° 0 mm 1 mps 752 mmHg 90%
06:00 +24°C° 0 mm 1 mps 752 mmHg 90%
07:00 +24°C° 0 mm 1 mps 753 mmHg 89%
08:00 +24°C° 0 mm 2 mps 753 mmHg 74%
09:00 +25°C° 0 mm 2 mps 754 mmHg 59%
10:00 +26°C° 0 mm 3 mps 754 mmHg 44%
11:00 +27°C° 0 mm 3 mps 753 mmHg 40%
12:00 +29°C° 0 mm 2 mps 753 mmHg 36%
13:00 +31°C° 0 mm 2 mps 752 mmHg 31%
14:00 +31°C° 0 mm 2 mps 752 mmHg 31%
15:00 +30°C° 0 mm 2 mps 752 mmHg 32%
16:00 +30°C° 0 mm 2 mps 751 mmHg 32%
17:00 +28°C° 0 mm 2 mps 752 mmHg 36%
18:00 +26°C° 0 mm 2 mps 752 mmHg 41%
19:00 +24°C° 0 mm 1 mps 752 mmHg 45%
20:00 +24°C° 0 mm 2 mps 753 mmHg 45%
21:00 +23°C° 0 mm 2 mps 753 mmHg 46%
22:00 +23°C° 0 mm 2 mps 754 mmHg 47%
23:00 +21°C° 0 mm 2 mps 754 mmHg 48%

9 August, Sunday

Time Temperature Precipitation Wind Pressure Humidity
00:00 +21°C° 0 mm 2 mps 754 mmHg 49%
01:00 +20°C° 0 mm 2 mps 753 mmHg 50%
02:00 +20°C° 0 mm 2 mps 753 mmHg 50%
03:00 +19°C° 0 mm 3 mps 753 mmHg 51%
04:00 +19°C° 0 mm 3 mps 753 mmHg 51%
05:00 +18°C° 0 mm 3 mps 754 mmHg 50%
06:00 +18°C° 0 mm 3 mps 754 mmHg 49%
07:00 +18°C° 0 mm 4 mps 755 mmHg 49%
08:00 +20°C° 0 mm 4 mps 755 mmHg 44%
09:00 +22°C° 0 mm 4 mps 755 mmHg 40%
10:00 +25°C° 0 mm 4 mps 755 mmHg 35%
11:00 +26°C° 0 mm 3 mps 755 mmHg 34%
12:00 +27°C° 0 mm 3 mps 754 mmHg 33%
13:00 +29°C° 0 mm 2 mps 753 mmHg 32%
14:00 +29°C° 0 mm 2 mps 753 mmHg 33%
15:00 +29°C° 0 mm 2 mps 753 mmHg 34%
16:00 +29°C° 0 mm 2 mps 752 mmHg 35%
17:00 +27°C° 0 mm 2 mps 753 mmHg 40%
18:00 +25°C° 0 mm 2 mps 753 mmHg 45%
19:00 +23°C° 0 mm 2 mps 753 mmHg 50%
20:00 +21°C° 0 mm 2 mps 754 mmHg 50%
21:00 +21°C° 0 mm 2 mps 754 mmHg 50%
22:00 +20°C° 0 mm 2 mps 755 mmHg 50%
23:00 +19°C° 0 mm 2 mps 755 mmHg 48%

10 August, Monday

Time Temperature Precipitation Wind Pressure Humidity
00:00 +19°C° 0 mm 2 mps 755 mmHg 47%
01:00 +18°C° 0 mm 2 mps 754 mmHg 45%
02:00 +17°C° 0 mm 2 mps 754 mmHg 43%
03:00 +17°C° 0 mm 3 mps 754 mmHg 41%
04:00 +16°C° 0 mm 3 mps 754 mmHg 39%
05:00 +16°C° 0 mm 3 mps 755 mmHg 38%
06:00 +14°C° 0 mm 3 mps 755 mmHg 38%
07:00 +14°C° 0 mm 3 mps 756 mmHg 37%
08:00 +17°C° 0 mm 3 mps 756 mmHg 33%
09:00 +20°C° 0 mm 3 mps 756 mmHg 29%
10:00 +22°C° 0 mm 4 mps 757 mmHg 25%
11:00 +24°C° 0 mm 3 mps 756 mmHg 25%
12:00 +26°C° 0 mm 3 mps 755 mmHg 24%
13:00 +27°C° 0 mm 2 mps 755 mmHg 23%
14:00 +27°C° 0 mm 3 mps 754 mmHg 25%
15:00 +27°C° 0 mm 3 mps 754 mmHg 26%
16:00 +26°C° 0 mm 3 mps 754 mmHg 27%
17:00 +24°C° 0 mm 2 mps 754 mmHg 34%
18:00 +21°C° 0 mm 1 mps 754 mmHg 40%
19:00 +17°C° 0 mm 0 mps 754 mmHg 47%
20:00 +19°C° 0 mm 1 mps 755 mmHg 48%
21:00 +18°C° 0 mm 1 mps 755 mmHg 49%
22:00 +18°C° 0 mm 1 mps 756 mmHg 49%
23:00 +16°C° 0 mm 1 mps 755 mmHg 51%

11 August, Tuesday

Time Temperature Precipitation Wind Pressure Humidity
00:00 +16°C° 0 mm 1 mps 755 mmHg 52%
01:00 +16°C° 0 mm 1 mps 755 mmHg 53%
02:00 +15°C° 0 mm 1 mps 755 mmHg 55%
03:00 +15°C° 0 mm 1 mps 755 mmHg 57%
04:00 +15°C° 0 mm 1 mps 755 mmHg 59%
05:00 +15°C° 0 mm 2 mps 755 mmHg 61%
06:00 +15°C° 0 mm 2 mps 755 mmHg 63%
07:00 +15°C° 0 mm 2 mps 756 mmHg 65%
08:00 +18°C° 0 mm 2 mps 756 mmHg 58%
09:00 +20°C° 0 mm 2 mps 756 mmHg 51%
10:00 +24°C° 0 mm 2 mps 757 mmHg 43%
11:00 +24°C° 0 mm 3 mps 756 mmHg 43%
12:00 +25°C° 0 mm 3 mps 755 mmHg 43%
13:00 +25°C° 0 mm 3 mps 754 mmHg 42%
14:00 +25°C° 0 mm 3 mps 754 mmHg 44%
15:00 +25°C° 0 mm 3 mps 754 mmHg 46%
16:00 +24°C° 0 mm 3 mps 753 mmHg 48%
17:00 +21°C° 0 mm 3 mps 754 mmHg 55%
18:00 +20°C° 0 mm 3 mps 754 mmHg 63%
19:00 +18°C° 0 mm 2 mps 754 mmHg 70%
20:00 +18°C° 0 mm 2 mps 755 mmHg 74%
21:00 +18°C° 0 mm 2 mps 755 mmHg 77%
22:00 +17°C° 0 mm 2 mps 756 mmHg 81%
23:00 +17°C° 0 mm 2 mps 755 mmHg 82%
Show more